Regional Weather Roundup
Issued by NWS

Home | Current Version | Previous Version | Graphics & Text | Print | Product List | Glossary Off
Versions: 1 2 3 4 5 6 7 8 9 10 11 12 13 14 15 16 17 18 19 20 21 22 23 24 25 26 27 28 29 30 31 32 33 34 35 36 37 38 39 40 41 42 43 44 45 46 47 48 49 50

000
ASUS44 KMEG 192310
RWRTN
TENNESSEE HOURLY STATE WEATHER ROUNDUP
NATIONAL WEATHER SERVICE MEMPHIS TN
500 PM CST FRI JAN 19 2018

TNZ002-004-019-021-049-052-054-088>092-200000-
WEST TENNESSEE

CITY           SKY/WX    TMP DP  RH WIND       PRES   REMARKS
MEMPHIS INTL   CLOUDY    40  21  46 S13       30.18F WCI  32
NWS MEMPHIS      N/A     41 N/A N/A MISG        N/A
JACKSON        CLOUDY    42  20  41 S9        30.17F
DYERSBURG      FAIR      41  21  44 S8        30.15F
SOMERVILLE     CLOUDY    41  19  42 S8        30.17F
COVINGTON      CLOUDY    41  23  48 S16G22    30.16F
UNION CITY     PTCLDY    39  23  52 S12       30.13F WCI  32
BOLIVAR        CLOUDY    43  18  36 S8        30.18F
PARIS          CLOUDY    41  23  48 S12       30.13F
HUNTINGDON     CLOUDY    43  21  42 S8        30.15S
LEXINGTON      CLOUDY    45  21  39 S9G15     30.18F
SELMER         CLOUDY    43  19  39 S7        30.19F
SAVANNAH       CLOUDY    45  19  36 S9        30.20F
$$

TNZ008-025-027-028-033-062-065-066-200000-
NORTH MIDDLE TENNESSEE

CITY           SKY/WX    TMP DP  RH WIND       PRES   REMARKS
NASHVILLE      FAIR      45  21  38 SW9       30.18F
PORTLAND       CLEAR     41  23  48 S8        30.15S
CLARKSVILLE    MOCLDY    43  19  38 S10       30.15S
SMYRNA         FAIR      42  21  43 S6        30.20F
COOKEVILLE     CLEAR     39  16  38 S7        30.18S WCI  34
GALLATIN       CLEAR     45  19  36 S5        30.20S
CROSSVILLE     FAIR      41  11  29 S3        30.17S
$$

TNZ061-075-076-078-094-096-097-200000-
SOUTH MIDDLE TENNESSEE

CITY           SKY/WX    TMP DP  RH WIND       PRES   REMARKS
FAYETTEVILLE   CLEAR     45  18  33 SW5       30.21F
TULLAHOMA      CLEAR     39  16  38 S5        30.20S
WINCHESTER     CLEAR     43  14  31 W3        30.22S
MCMINNVILLE    CLEAR     41  12  30 SW5       30.19S
COLUMBIA       CLOUDY    46  21  36 S8        30.18S
SHELBYVILLE    CLEAR     43  19  39 SW9       30.20S
$$

TNZ017-018-042-046-047-200000-
NORTHEAST TENNESSEE

CITY           SKY/WX    TMP DP  RH WIND       PRES   REMARKS
TRI CITIES     FAIR      40  10  29 W6        30.18S
ELIZABETHTON   FAIR      32  19  59 CALM      30.18S
$$

TNZ012-013-036-069-073-074-200000-
CENTRAL EAST TENNESSEE

CITY           SKY/WX    TMP DP  RH WIND       PRES   REMARKS
KNOXVILLE      FAIR      43  12  28 W6        30.18F
OAK RIDGE      FAIR      41  15  35 CALM      30.21F
DOWNTOWN KNOXV CLEAR     41  16  36 CALM      30.20F
GATLINBURG     CLEAR     41  16  36 CALM      30.19S
MORRISTOWN     CLEAR     43  10  26 CALM      30.18S
JACKSBORO      CLEAR     37  14  38 CALM      30.21F
$$

TNZ083-085-099-200000-
SOUTHEAST TENNESSEE

CITY           SKY/WX    TMP DP  RH WIND       PRES   REMARKS
CHATTANOOGA    FAIR      47   2  15 SW5       30.22F
DAYTON         CLEAR     43  18  36 SW3       30.20F
$$

SKY/WX REPORTED AS FAIR MEANS FEW OR NO CLOUDS BELOW
12 THOUSAND FEET.




USA.gov is the U.S. government's official web portal to all federal, state and local government web resources and services.